Time,TemperatureF,DewpointF,PressureIn,WindDirection,WindDirectionDegrees,WindSpeedMPH,WindSpeedGustMPH,Humidity,HourlyPrecipIn,Conditions,Clouds,dailyrainin,SoftwareType,DateUTC
2013-01-28 00:02:00,37.0,34.2,29.48,ESE,119,1.0,8.0,91,0.00,,,0.14,meteohub,2013-01-28 00:02:00,
2013-01-28 00:07:00,37.2,34.3,29.49,South,186,5.0,8.0,91,0.00,,,0.00,meteohub,2013-01-28 00:07:00,
2013-01-28 00:12:00,37.0,34.2,29.49,SW,230,0.0,7.0,91,0.00,,,0.00,meteohub,2013-01-28 00:12:00,
2013-01-28 00:17:00,36.9,34.0,29.49,SSW,202,0.0,10.0,91,0.00,,,0.00,meteohub,2013-01-28 00:17:00,
2013-01-28 00:22:00,36.9,33.8,29.50,SSW,198,1.0,10.0,92,0.00,,,0.00,meteohub,2013-01-28 00:22:00,
2013-01-28 00:27:00,36.9,34.0,29.50,SSW,204,0.0,10.0,92,0.00,,,0.00,meteohub,2013-01-28 00:27:00,
2013-01-28 00:32:00,36.9,33.8,29.50,SSW,211,0.0,10.0,92,0.00,,,0.00,meteohub,2013-01-28 00:32:00,
2013-01-28 00:37:00,36.7,33.8,29.52,SSW,200,1.0,10.0,93,0.00,,,0.00,meteohub,2013-01-28 00:37:00,
2013-01-28 00:43:00,36.5,34.0,29.52,South,182,0.0,7.0,93,0.00,,,0.00,meteohub,2013-01-28 00:43:00,
2013-01-28 00:47:00,36.3,33.8,29.52,South,188,0.0,5.0,94,0.00,,,0.00,meteohub,2013-01-28 00:47:00,
2013-01-28 00:53:00,36.3,33.6,29.53,SW,228,0.0,7.0,94,0.00,,,0.00,meteohub,2013-01-28 00:53:00,
2013-01-28 00:58:00,36.1,33.6,29.53,SW,225,1.0,7.0,94,0.00,,,0.00,meteohub,2013-01-28 00:58:00,
2013-01-28 01:03:00,36.1,33.6,29.53,SSE,153,0.0,7.0,94,0.00,,,0.00,meteohub,2013-01-28 01:03:00,
2013-01-28 01:08:00,36.1,33.4,29.53,East,97,0.0,7.0,95,0.00,,,0.00,meteohub,2013-01-28 01:08:00,
2013-01-28 01:13:00,36.1,33.3,29.53,South,183,2.0,7.0,95,0.00,,,0.00,meteohub,2013-01-28 01:13:00,
2013-01-28 01:18:00,36.1,33.4,29.53,SSW,194,0.0,10.0,95,0.00,,,0.00,meteohub,2013-01-28 01:18:00,
2013-01-28 01:23:00,36.1,33.1,29.54,SE,140,3.0,10.0,95,0.00,,,0.00,meteohub,2013-01-28 01:23:00,
2013-01-28 01:28:00,36.1,33.1,29.54,South,177,2.0,10.0,95,0.00,,,0.00,meteohub,2013-01-28 01:28:00,
2013-01-28 01:33:00,36.1,33.4,29.54,SW,217,1.0,8.0,95,0.00,,,0.00,meteohub,2013-01-28 01:33:00,
2013-01-28 01:38:00,36.1,33.1,29.55,SE,144,7.0,9.0,95,0.00,,,0.00,meteohub,2013-01-28 01:38:00,
2013-01-28 01:43:00,36.1,33.1,29.55,SSW,205,2.0,9.0,95,0.00,,,0.00,meteohub,2013-01-28 01:43:00,
2013-01-28 01:48:00,36.1,32.9,29.55,SSW,205,3.0,9.0,95,0.00,,,0.00,meteohub,2013-01-28 01:48:00,
2013-01-28 01:53:00,36.0,32.9,29.55,South,180,0.0,7.0,95,0.00,,,0.00,meteohub,2013-01-28 01:53:00,
2013-01-28 01:58:00,36.0,32.7,29.55,WSW,244,0.0,7.0,95,0.00,,,0.00,meteohub,2013-01-28 01:58:00,
2013-01-28 02:03:00,35.8,32.7,29.55,SW,221,0.0,6.0,95,0.00,,,0.00,meteohub,2013-01-28 02:03:00,
2013-01-28 02:08:00,35.6,32.9,29.56,SW,221,0.0,4.0,95,0.00,,,0.00,meteohub,2013-01-28 02:08:00,
2013-01-28 02:13:00,35.4,33.3,29.56,SW,217,0.0,4.0,95,0.00,,,0.00,meteohub,2013-01-28 02:13:00,
2013-01-28 02:18:00,35.2,32.5,29.56,SSW,213,4.0,4.0,94,0.00,,,0.00,meteohub,2013-01-28 02:18:00,
2013-01-28 02:23:00,35.2,32.7,29.56,West,266,0.0,5.0,95,0.00,,,0.00,meteohub,2013-01-28 02:23:00,
2013-01-28 02:28:00,35.4,32.4,29.56,West,266,0.0,5.0,94,0.00,,,0.00,meteohub,2013-01-28 02:28:00,
2013-01-28 02:33:00,35.2,32.4,29.56,West,261,0.0,5.0,94,0.00,,,0.00,meteohub,2013-01-28 02:33:00,
2013-01-28 02:38:00,35.4,32.4,29.56,West,265,0.0,4.0,94,0.00,,,0.00,meteohub,2013-01-28 02:38:00,
2013-01-28 02:43:00,35.4,32.4,29.56,West,265,0.0,3.0,93,0.00,,,0.00,meteohub,2013-01-28 02:43:00,
2013-01-28 02:48:00,35.4,32.4,29.56,West,267,0.0,3.0,93,0.00,,,0.00,meteohub,2013-01-28 02:48:00,
2013-01-28 02:53:00,35.2,32.4,29.57,West,265,0.0,3.0,93,0.00,,,0.00,meteohub,2013-01-28 02:53:00,
2013-01-28 02:58:00,35.4,32.4,29.57,West,265,0.0,3.0,93,0.00,,,0.00,meteohub,2013-01-28 02:58:00,
2013-01-28 03:03:00,35.4,32.2,29.57,West,260,0.0,3.0,93,0.00,,,0.00,meteohub,2013-01-28 03:03:00,
2013-01-28 03:08:00,35.4,32.4,29.58,West,259,2.0,3.0,92,0.00,,,0.00,meteohub,2013-01-28 03:08:00,
2013-01-28 03:13:00,35.4,32.4,29.58,West,259,0.0,3.0,92,0.00,,,0.00,meteohub,2013-01-28 03:13:00,
2013-01-28 03:18:00,35.4,32.5,29.58,West,259,0.0,4.0,92,0.00,,,0.00,meteohub,2013-01-28 03:18:00,
2013-01-28 03:23:00,35.2,32.4,29.59,West,259,0.0,4.0,92,0.00,,,0.00,meteohub,2013-01-28 03:23:00,
2013-01-28 03:28:00,35.2,32.4,29.59,West,259,0.0,4.0,93,0.00,,,0.00,meteohub,2013-01-28 03:28:00,
2013-01-28 03:33:00,35.1,32.0,29.59,WSW,258,0.0,1.0,93,0.00,,,0.00,meteohub,2013-01-28 03:33:00,
2013-01-28 03:38:00,34.9,32.2,29.59,WSW,258,0.0,1.0,93,0.00,,,0.00,meteohub,2013-01-28 03:38:00,
2013-01-28 03:43:00,34.9,31.8,29.59,SW,236,0.0,2.0,93,0.00,,,0.00,meteohub,2013-01-28 03:43:00,
2013-01-28 03:48:00,34.9,31.6,29.59,SW,219,1.0,2.0,93,0.00,,,0.00,meteohub,2013-01-28 03:48:00,
2013-01-28 03:53:00,34.9,31.5,29.59,SW,216,0.0,4.0,93,0.00,,,0.00,meteohub,2013-01-28 03:53:00,
2013-01-28 03:58:00,34.9,31.6,29.59,SW,216,0.0,4.0,93,0.00,,,0.00,meteohub,2013-01-28 03:58:00,
2013-01-28 04:03:00,34.7,31.5,29.59,SW,216,0.0,4.0,93,0.00,,,0.00,meteohub,2013-01-28 04:03:00,
2013-01-28 04:08:00,34.5,31.3,29.60,SW,216,0.0,3.0,93,0.00,,,0.00,meteohub,2013-01-28 04:08:00,
2013-01-28 04:13:00,34.5,32.5,29.60,SW,216,1.0,2.0,94,0.00,,,0.00,meteohub,2013-01-28 04:13:00,
2013-01-28 04:18:00,34.5,31.3,29.60,SW,221,0.0,3.0,94,0.00,,,0.00,meteohub,2013-01-28 04:18:00,
2013-01-28 04:23:00,34.7,31.3,29.61,SE,146,0.0,3.0,94,0.00,,,0.00,meteohub,2013-01-28 04:23:00,
2013-01-28 04:28:00,34.7,31.3,29.61,South,169,0.0,6.0,94,0.00,,,0.00,meteohub,2013-01-28 04:28:00,
2013-01-28 04:33:00,34.7,31.3,29.61,ESE,121,4.0,6.0,94,0.00,,,0.00,meteohub,2013-01-28 04:33:00,
2013-01-28 04:38:00,34.9,30.9,29.61,South,188,0.0,4.0,94,0.00,,,0.00,meteohub,2013-01-28 04:38:00,
2013-01-28 04:43:00,34.9,31.6,29.61,South,191,2.0,5.0,94,0.00,,,0.00,meteohub,2013-01-28 04:43:00,
2013-01-28 04:48:00,34.9,32.0,29.61,SSW,193,1.0,5.0,94,0.00,,,0.00,meteohub,2013-01-28 04:48:00,
2013-01-28 04:53:00,34.9,30.9,29.62,SSW,205,0.0,6.0,94,0.00,,,0.00,meteohub,2013-01-28 04:53:00,
2013-01-28 04:58:00,34.9,30.9,29.62,SSW,205,0.0,6.0,94,0.00,,,0.00,meteohub,2013-01-28 04:58:00,
2013-01-28 05:03:00,34.9,31.5,29.62,SSW,205,0.0,6.0,94,0.00,,,0.00,meteohub,2013-01-28 05:03:00,
2013-01-28 05:04:00,34.9,31.6,29.62,SSW,205,0.0,6.0,94,0.00,,,0.00,meteohub,2013-01-28 05:04:00,
2013-01-28 05:09:00,34.9,31.5,29.62,SSW,205,0.0,4.0,94,0.00,,,0.00,meteohub,2013-01-28 05:09:00,
2013-01-28 05:14:00,34.7,31.5,29.62,SE,146,0.0,4.0,94,0.00,,,0.00,meteohub,2013-01-28 05:14:00,
2013-01-28 05:19:00,34.9,31.5,29.63,SE,145,0.0,6.0,94,0.00,,,0.00,meteohub,2013-01-28 05:19:00,
2013-01-28 05:24:00,34.9,31.5,29.63,SE,130,0.0,6.0,94,0.00,,,0.00,meteohub,2013-01-28 05:24:00,
2013-01-28 05:29:00,34.9,31.5,29.63,SE,130,0.0,7.0,94,0.00,,,0.00,meteohub,2013-01-28 05:29:00,
2013-01-28 05:34:00,34.9,31.3,29.62,South,182,2.0,7.0,94,0.00,,,0.00,meteohub,2013-01-28 05:34:00,
2013-01-28 05:39:00,34.9,31.5,29.62,South,182,0.0,4.0,94,0.00,,,0.00,meteohub,2013-01-28 05:39:00,
2013-01-28 05:44:00,34.7,31.3,29.62,South,182,0.0,4.0,94,0.00,,,0.00,meteohub,2013-01-28 05:44:00,
2013-01-28 05:52:00,34.7,31.1,29.63,ESE,118,0.0,5.0,94,0.00,,,0.00,meteohub,2013-01-28 05:52:00,
2013-01-28 05:57:00,34.7,31.5,29.63,SE,143,0.0,5.0,93,0.00,,,0.00,meteohub,2013-01-28 05:57:00,
2013-01-28 06:02:00,34.7,31.1,29.63,South,169,0.0,3.0,93,0.00,,,0.00,meteohub,2013-01-28 06:02:00,
2013-01-28 06:07:00,34.7,31.1,29.63,South,169,1.0,6.0,93,0.00,,,0.00,meteohub,2013-01-28 06:07:00,
2013-01-28 06:12:00,34.5,31.3,29.63,South,169,0.0,6.0,93,0.00,,,0.00,meteohub,2013-01-28 06:12:00,
2013-01-28 06:17:00,34.5,31.1,29.63,South,171,0.0,6.0,93,0.00,,,0.00,meteohub,2013-01-28 06:17:00,
2013-01-28 06:22:00,34.3,31.1,29.63,South,171,0.0,3.0,93,0.00,,,0.00,meteohub,2013-01-28 06:22:00,
2013-01-28 06:27:00,34.3,31.6,29.63,South,172,0.0,2.0,93,0.00,,,0.00,meteohub,2013-01-28 06:27:00,
2013-01-28 06:32:00,34.3,31.8,29.63,South,171,0.0,2.0,93,0.00,,,0.00,meteohub,2013-01-28 06:32:00,
2013-01-28 06:37:00,34.5,31.6,29.63,South,173,0.0,4.0,93,0.00,,,0.00,meteohub,2013-01-28 06:37:00,
2013-01-28 06:42:00,34.3,31.6,29.63,South,173,0.0,4.0,93,0.00,,,0.00,meteohub,2013-01-28 06:42:00,
2013-01-28 06:47:00,34.5,32.0,29.63,South,169,0.0,3.0,93,0.00,,,0.00,meteohub,2013-01-28 06:47:00,
2013-01-28 06:52:00,34.5,31.8,29.64,South,175,0.0,3.0,92,0.00,,,0.00,meteohub,2013-01-28 06:52:00,
2013-01-28 06:57:00,34.9,31.6,29.64,South,173,0.0,4.0,92,0.00,,,0.00,meteohub,2013-01-28 06:57:00,
2013-01-28 07:02:00,35.1,32.4,29.64,South,188,1.0,4.0,92,0.00,,,0.00,meteohub,2013-01-28 07:02:00,
2013-01-28 07:07:00,35.2,31.8,29.65,SSE,168,0.0,5.0,91,0.00,,,0.00,meteohub,2013-01-28 07:07:00,
2013-01-28 07:12:00,35.2,31.8,29.65,SSE,168,0.0,5.0,91,0.00,,,0.00,meteohub,2013-01-28 07:12:00,
2013-01-28 07:17:00,35.1,31.8,29.65,SW,232,0.0,5.0,91,0.00,,,0.00,meteohub,2013-01-28 07:17:00,
2013-01-28 07:22:00,35.2,32.2,29.65,SE,130,0.0,3.0,92,0.00,,,0.00,meteohub,2013-01-28 07:22:00,
2013-01-28 07:27:00,35.4,32.0,29.65,South,190,0.0,8.0,91,0.00,,,0.00,meteohub,2013-01-28 07:27:00,
2013-01-28 07:32:00,35.6,32.0,29.65,SSE,163,1.0,8.0,91,0.00,,,0.00,meteohub,2013-01-28 07:32:00,
2013-01-28 07:37:00,35.6,32.4,29.65,SE,129,1.0,8.0,90,0.00,,,0.00,meteohub,2013-01-28 07:37:00,
2013-01-28 07:42:00,35.6,32.2,29.65,SSE,168,3.0,6.0,90,0.00,,,0.00,meteohub,2013-01-28 07:42:00,
2013-01-28 07:47:00,35.6,32.2,29.65,SSE,154,0.0,7.0,90,0.00,,,0.00,meteohub,2013-01-28 07:47:00,
2013-01-28 07:52:00,35.6,32.9,29.65,SSE,150,0.0,7.0,90,0.00,,,0.00,meteohub,2013-01-28 07:52:00,
2013-01-28 07:57:00,35.6,33.3,29.65,South,186,0.0,7.0,91,0.00,,,0.00,meteohub,2013-01-28 07:57:00,
2013-01-28 08:02:00,35.6,32.4,29.65,South,186,2.0,5.0,90,0.00,,,0.00,meteohub,2013-01-28 08:02:00,
2013-01-28 08:07:00,35.6,32.4,29.65,SE,146,0.0,6.0,91,0.00,,,0.00,meteohub,2013-01-28 08:07:00,
2013-01-28 08:12:00,35.6,32.7,29.65,SE,128,0.0,6.0,91,0.00,,,0.00,meteohub,2013-01-28 08:12:00,
2013-01-28 08:17:00,35.6,32.5,29.65,SSE,153,0.0,6.0,91,0.00,,,0.00,meteohub,2013-01-28 08:17:00,
2013-01-28 08:22:00,35.8,32.5,29.66,SSE,151,0.0,5.0,91,0.00,,,0.00,meteohub,2013-01-28 08:22:00,
2013-01-28 08:27:00,35.8,32.5,29.66,SSE,151,2.0,4.0,91,0.00,,,0.00,meteohub,2013-01-28 08:27:00,
2013-01-28 08:32:00,36.0,32.7,29.66,SSE,155,0.0,4.0,91,0.00,,,0.00,meteohub,2013-01-28 08:32:00,
2013-01-28 08:37:00,36.3,34.2,29.66,SSE,149,0.0,4.0,91,0.00,,,0.00,meteohub,2013-01-28 08:37:00,
2013-01-28 08:42:00,36.7,34.3,29.66,SSE,156,1.0,6.0,90,0.00,,,0.00,meteohub,2013-01-28 08:42:00,
2013-01-28 08:46:00,36.9,34.7,29.66,ESE,121,0.0,6.0,90,0.00,,,0.00,meteohub,2013-01-28 08:46:00,
2013-01-28 08:52:00,37.0,35.4,29.67,South,173,0.0,6.0,89,0.00,,,0.00,meteohub,2013-01-28 08:52:00,
2013-01-28 08:57:00,37.0,36.0,29.67,ESE,118,0.0,6.0,90,0.00,,,0.00,meteohub,2013-01-28 08:57:00,
2013-01-28 09:02:00,37.0,36.5,29.67,South,188,0.0,6.0,90,0.00,,,0.00,meteohub,2013-01-28 09:02:00,
2013-01-28 09:07:00,37.0,36.5,29.67,ESE,121,0.0,6.0,90,0.00,,,0.00,meteohub,2013-01-28 09:07:00,
2013-01-28 09:12:00,37.2,36.9,29.67,SE,129,0.0,4.0,90,0.00,,,0.00,meteohub,2013-01-28 09:12:00,
2013-01-28 09:17:00,37.4,36.9,29.67,South,176,2.0,4.0,90,0.00,,,0.00,meteohub,2013-01-28 09:17:00,
2013-01-28 09:22:00,37.6,37.9,29.66,ESE,122,0.0,6.0,91,0.00,,,0.00,meteohub,2013-01-28 09:22:00,
2013-01-28 09:27:00,37.6,37.6,29.66,SE,144,5.0,6.0,92,0.01,,,0.01,meteohub,2013-01-28 09:27:00,
2013-01-28 09:32:00,37.6,37.8,29.66,South,172,2.0,6.0,92,0.01,,,0.01,meteohub,2013-01-28 09:32:00,
2013-01-28 09:37:00,37.8,38.1,29.66,SW,217,0.0,8.0,93,0.01,,,0.01,meteohub,2013-01-28 09:37:00,
2013-01-28 09:42:00,37.9,37.9,29.66,SSE,150,0.0,8.0,93,0.01,,,0.01,meteohub,2013-01-28 09:42:00,
2013-01-28 09:47:00,38.1,37.8,29.66,SSE,163,0.0,8.0,93,0.01,,,0.01,meteohub,2013-01-28 09:47:00,
2013-01-28 09:52:00,38.3,38.1,29.66,South,175,3.0,8.0,93,0.01,,,0.01,meteohub,2013-01-28 09:52:00,
2013-01-28 09:57:00,38.5,37.9,29.66,SSE,155,0.0,9.0,92,0.01,,,0.01,meteohub,2013-01-28 09:57:00,
2013-01-28 10:02:00,38.8,37.9,29.66,SW,220,4.0,9.0,92,0.01,,,0.01,meteohub,2013-01-28 10:02:00,
2013-01-28 10:07:00,39.0,38.3,29.66,SSE,155,4.0,9.0,92,0.01,,,0.01,meteohub,2013-01-28 10:07:00,
2013-01-28 10:12:00,39.2,38.7,29.66,SSW,198,0.0,10.0,91,0.01,,,0.01,meteohub,2013-01-28 10:12:00,
2013-01-28 10:17:00,39.4,38.8,29.66,SSE,158,4.0,10.0,91,0.01,,,0.01,meteohub,2013-01-28 10:17:00,
2013-01-28 10:22:00,39.6,39.0,29.65,SE,142,1.0,7.0,91,0.00,,,0.01,meteohub,2013-01-28 10:22:00,
2013-01-28 10:27:00,39.6,39.6,29.65,ESE,116,1.0,7.0,91,0.00,,,0.01,meteohub,2013-01-28 10:27:00,
2013-01-28 10:32:00,39.7,39.7,29.65,SSW,196,2.0,7.0,91,0.00,,,0.01,meteohub,2013-01-28 10:32:00,
2013-01-28 10:37:00,39.7,39.2,29.66,SSW,211,1.0,10.0,90,0.00,,,0.01,meteohub,2013-01-28 10:37:00,
2013-01-28 10:42:00,39.9,39.2,29.66,ESE,106,3.0,10.0,90,0.00,,,0.01,meteohub,2013-01-28 10:42:00,
2013-01-28 10:47:00,39.9,39.7,29.66,East,94,2.0,10.0,90,0.00,,,0.01,meteohub,2013-01-28 10:47:00,
2013-01-28 10:52:00,39.9,39.7,29.65,SE,143,4.0,11.0,90,0.00,,,0.01,meteohub,2013-01-28 10:52:00,
2013-01-28 10:57:00,40.1,39.7,29.65,South,175,0.0,11.0,90,0.00,,,0.01,meteohub,2013-01-28 10:57:00,
2013-01-28 11:02:00,40.3,40.3,29.65,South,175,0.0,11.0,90,0.00,,,0.01,meteohub,2013-01-28 11:02:00,
2013-01-28 11:07:00,40.3,40.1,29.65,ESE,104,2.0,11.0,90,0.00,,,0.01,meteohub,2013-01-28 11:07:00,
2013-01-28 11:12:00,40.3,40.1,29.65,SSW,200,6.0,10.0,90,0.00,,,0.01,meteohub,2013-01-28 11:12:00,
2013-01-28 11:17:00,40.3,40.3,29.65,ESE,110,7.0,9.0,90,0.00,,,0.01,meteohub,2013-01-28 11:17:00,
2013-01-28 11:22:00,40.5,40.3,29.64,SE,145,3.0,9.0,89,0.00,,,0.01,meteohub,2013-01-28 11:22:00,
2013-01-28 11:27:00,40.5,39.7,29.64,ESE,103,1.0,9.0,90,0.00,,,0.01,meteohub,2013-01-28 11:27:00,
2013-01-28 11:32:00,40.5,39.7,29.64,South,169,1.0,10.0,90,0.00,,,0.01,meteohub,2013-01-28 11:32:00,
2013-01-28 11:37:00,40.6,39.9,29.63,South,176,6.0,10.0,90,0.00,,,0.01,meteohub,2013-01-28 11:37:00,
2013-01-28 11:42:00,40.8,38.8,29.63,ESE,119,0.0,10.0,90,0.00,,,0.01,meteohub,2013-01-28 11:42:00,
2013-01-28 11:47:00,40.8,38.8,29.63,SE,142,1.0,12.0,90,0.00,,,0.01,meteohub,2013-01-28 11:47:00,
2013-01-28 11:52:00,41.2,39.0,29.62,SE,129,6.0,14.0,89,0.00,,,0.01,meteohub,2013-01-28 11:52:00,
2013-01-28 11:57:00,41.4,38.8,29.62,ESE,117,10.0,14.0,89,0.00,,,0.01,meteohub,2013-01-28 11:57:00,
2013-01-28 12:02:00,41.5,38.8,29.62,SSE,159,0.0,15.0,88,0.00,,,0.01,meteohub,2013-01-28 12:02:00,
2013-01-28 12:07:00,41.7,38.8,29.61,SSW,204,6.0,15.0,88,0.00,,,0.01,meteohub,2013-01-28 12:07:00,
2013-01-28 12:12:00,42.1,39.0,29.61,South,189,4.0,14.0,88,0.00,,,0.01,meteohub,2013-01-28 12:12:00,
2013-01-28 12:17:00,42.1,38.8,29.61,WSW,242,5.0,14.0,88,0.00,,,0.01,meteohub,2013-01-28 12:17:00,
2013-01-28 12:22:00,42.3,38.8,29.60,WSW,237,5.0,14.0,88,0.00,,,0.01,meteohub,2013-01-28 12:22:00,
2013-01-28 12:27:00,42.3,39.2,29.60,SSE,159,5.0,14.0,88,0.00,,,0.01,meteohub,2013-01-28 12:27:00,
2013-01-28 12:32:00,42.4,38.8,29.60,West,281,0.0,14.0,88,0.00,,,0.01,meteohub,2013-01-28 12:32:00,
2013-01-28 12:37:00,42.6,38.7,29.58,SE,128,0.0,16.0,88,0.00,,,0.01,meteohub,2013-01-28 12:37:00,
2013-01-28 12:42:00,42.6,38.7,29.58,East,100,0.0,18.0,87,0.00,,,0.01,meteohub,2013-01-28 12:42:00,
2013-01-28 12:47:00,42.8,38.8,29.58,ESE,113,3.0,18.0,87,0.00,,,0.01,meteohub,2013-01-28 12:47:00,
2013-01-28 12:52:00,43.0,38.7,29.57,SSE,154,12.0,18.0,87,0.00,,,0.01,meteohub,2013-01-28 12:52:00,
2013-01-28 12:57:00,43.0,38.7,29.57,ESE,120,9.0,14.0,87,0.00,,,0.01,meteohub,2013-01-28 12:57:00,
2013-01-28 13:02:00,43.2,38.8,29.57,SW,215,5.0,14.0,86,0.00,,,0.01,meteohub,2013-01-28 13:02:00,
2013-01-28 13:07:00,43.3,38.7,29.55,South,182,6.0,14.0,86,0.00,,,0.01,meteohub,2013-01-28 13:07:00,
2013-01-28 13:12:00,43.3,38.7,29.55,SSE,162,2.0,16.0,86,0.00,,,0.01,meteohub,2013-01-28 13:12:00,
2013-01-28 13:17:00,43.5,39.0,29.55,SSW,211,2.0,16.0,86,0.00,,,0.01,meteohub,2013-01-28 13:17:00,
2013-01-28 13:22:00,43.9,39.6,29.54,SSE,158,3.0,16.0,86,0.00,,,0.01,meteohub,2013-01-28 13:22:00,
2013-01-28 13:27:00,43.9,38.7,29.54,South,171,6.0,15.0,85,0.00,,,0.01,meteohub,2013-01-28 13:27:00,
2013-01-28 13:32:00,44.1,38.1,29.54,SW,227,3.0,15.0,85,0.00,,,0.01,meteohub,2013-01-28 13:32:00,
2013-01-28 13:37:00,44.2,38.1,29.51,SW,232,6.0,15.0,85,0.00,,,0.01,meteohub,2013-01-28 13:37:00,
2013-01-28 13:42:00,44.2,38.1,29.51,SSE,149,0.0,12.0,85,0.00,,,0.01,meteohub,2013-01-28 13:42:00,
2013-01-28 13:47:00,44.2,38.5,29.51,ESE,109,1.0,12.0,85,0.00,,,0.01,meteohub,2013-01-28 13:47:00,
2013-01-28 13:52:00,44.4,39.0,29.49,South,190,9.0,17.0,86,0.00,,,0.01,meteohub,2013-01-28 13:52:00,
2013-01-28 13:57:00,44.4,38.1,29.49,SE,140,10.0,21.0,86,0.00,,,0.01,meteohub,2013-01-28 13:57:00,
2013-01-28 14:02:00,44.6,38.1,29.49,SSE,148,7.0,21.0,87,0.00,,,0.01,meteohub,2013-01-28 14:02:00,
2013-01-28 14:07:00,44.8,38.1,29.47,SSE,162,0.0,15.0,87,0.00,,,0.01,meteohub,2013-01-28 14:07:00,
2013-01-28 14:12:00,45.0,38.1,29.47,SW,221,3.0,18.0,87,0.00,,,0.01,meteohub,2013-01-28 14:12:00,
2013-01-28 14:17:00,45.1,38.1,29.47,South,177,1.0,18.0,87,0.00,,,0.01,meteohub,2013-01-28 14:17:00,
2013-01-28 14:22:00,45.1,38.1,29.46,SSE,163,7.0,18.0,87,0.00,,,0.01,meteohub,2013-01-28 14:22:00,
2013-01-28 14:27:00,45.3,38.3,29.46,SSW,213,3.0,17.0,87,0.00,,,0.01,meteohub,2013-01-28 14:27:00,
2013-01-28 14:32:00,45.5,38.3,29.46,SE,132,6.0,17.0,87,0.00,,,0.01,meteohub,2013-01-28 14:32:00,
2013-01-28 14:37:00,45.3,39.7,29.44,SE,140,1.0,17.0,88,0.00,,,0.01,meteohub,2013-01-28 14:37:00,
2013-01-28 14:42:00,45.1,39.9,29.44,SSE,148,1.0,17.0,88,0.00,,,0.01,meteohub,2013-01-28 14:42:00,
2013-01-28 14:47:00,45.1,40.3,29.44,South,191,2.0,17.0,89,0.00,,,0.01,meteohub,2013-01-28 14:47:00,
2013-01-28 14:52:00,45.0,40.3,29.42,South,174,9.0,17.0,89,0.00,,,0.01,meteohub,2013-01-28 14:52:00,
2013-01-28 14:57:00,45.0,40.3,29.42,SE,132,0.0,17.0,90,0.00,,,0.01,meteohub,2013-01-28 14:57:00,
2013-01-28 15:02:00,45.1,40.5,29.42,SE,142,1.0,17.0,90,0.00,,,0.01,meteohub,2013-01-28 15:02:00,
2013-01-28 15:07:00,45.1,40.3,29.40,SSW,193,3.0,17.0,90,0.00,,,0.01,meteohub,2013-01-28 15:07:00,
2013-01-28 15:12:00,45.3,41.0,29.40,SSW,209,7.0,14.0,90,0.00,,,0.01,meteohub,2013-01-28 15:12:00,
2013-01-28 15:17:00,45.9,40.6,29.40,SSE,163,4.0,14.0,89,0.00,,,0.01,meteohub,2013-01-28 15:17:00,
2013-01-28 15:22:00,46.2,40.3,29.38,SSE,161,3.0,14.0,89,0.00,,,0.01,meteohub,2013-01-28 15:22:00,
2013-01-28 15:27:00,46.6,40.3,29.38,WNW,294,7.0,14.0,90,0.00,,,0.01,meteohub,2013-01-28 15:27:00,
2013-01-28 15:32:00,46.6,40.1,29.38,SW,217,9.0,15.0,90,0.00,,,0.01,meteohub,2013-01-28 15:32:00,
2013-01-28 15:37:00,46.8,40.3,29.36,SSE,155,15.0,15.0,90,0.00,,,0.01,meteohub,2013-01-28 15:37:00,
2013-01-28 15:42:00,46.8,40.1,29.36,South,184,7.0,21.0,90,0.01,,,0.02,meteohub,2013-01-28 15:42:00,
2013-01-28 15:47:00,46.8,40.1,29.36,South,172,8.0,21.0,90,0.01,,,0.02,meteohub,2013-01-28 15:47:00,
2013-01-28 15:52:00,46.9,40.3,29.35,West,265,5.0,21.0,91,0.01,,,0.02,meteohub,2013-01-28 15:52:00,
2013-01-28 15:57:00,46.8,40.1,29.35,SW,229,3.0,31.0,91,0.01,,,0.02,meteohub,2013-01-28 15:57:00,
2013-01-28 16:02:00,46.8,40.1,29.35,South,180,4.0,31.0,92,0.01,,,0.02,meteohub,2013-01-28 16:02:00,
2013-01-28 16:07:00,46.9,40.3,29.34,SSE,159,2.0,17.0,92,0.01,,,0.02,meteohub,2013-01-28 16:07:00,
2013-01-28 16:12:00,46.9,40.3,29.34,SW,224,5.0,15.0,92,0.01,,,0.02,meteohub,2013-01-28 16:12:00,
2013-01-28 16:17:00,46.9,40.3,29.34,WSW,246,0.0,22.0,92,0.01,,,0.02,meteohub,2013-01-28 16:17:00,
2013-01-28 16:22:00,47.1,41.5,29.34,West,273,4.0,22.0,93,0.01,,,0.02,meteohub,2013-01-28 16:22:00,
2013-01-28 16:27:00,47.1,40.3,29.34,SW,230,6.0,22.0,94,0.01,,,0.02,meteohub,2013-01-28 16:27:00,
2013-01-28 16:32:00,46.9,40.3,29.34,SSE,152,1.0,21.0,94,0.02,,,0.03,meteohub,2013-01-28 16:32:00,
2013-01-28 16:37:00,46.9,40.8,29.34,West,259,5.0,18.0,95,0.02,,,0.04,meteohub,2013-01-28 16:37:00,
2013-01-28 16:42:00,46.9,41.4,29.34,SSE,166,5.0,15.0,95,0.02,,,0.04,meteohub,2013-01-28 16:42:00,
2013-01-28 16:47:00,46.9,41.0,29.34,West,271,5.0,15.0,95,0.03,,,0.05,meteohub,2013-01-28 16:47:00,
2013-01-28 16:52:00,46.9,41.0,29.33,South,173,8.0,15.0,96,0.04,,,0.06,meteohub,2013-01-28 16:52:00,
2013-01-28 16:57:00,46.9,41.0,29.33,SSW,206,7.0,15.0,96,0.06,,,0.08,meteohub,2013-01-28 16:57:00,
2013-01-28 17:02:00,46.9,41.2,29.33,West,264,0.0,15.0,96,0.08,,,0.10,meteohub,2013-01-28 17:02:00,
2013-01-28 17:07:00,46.8,41.0,29.33,WNW,296,2.0,15.0,96,0.12,,,0.14,meteohub,2013-01-28 17:07:00,
2013-01-28 17:12:00,46.8,41.0,29.33,WNW,286,3.0,13.0,97,0.14,,,0.16,meteohub,2013-01-28 17:12:00,
2013-01-28 17:17:00,46.6,41.4,29.33,SW,227,0.0,8.0,97,0.18,,,0.20,meteohub,2013-01-28 17:17:00,
2013-01-28 17:22:00,46.6,41.2,29.34,WNW,300,2.0,8.0,97,0.20,,,0.22,meteohub,2013-01-28 17:22:00,
2013-01-28 17:27:00,46.8,42.4,29.34,WNW,294,3.0,11.0,97,0.19,,,0.22,meteohub,2013-01-28 17:27:00,
2013-01-28 17:32:00,46.9,41.5,29.34,SW,236,2.0,14.0,96,0.18,,,0.22,meteohub,2013-01-28 17:32:00,
2013-01-28 17:37:00,46.8,41.4,29.34,SW,234,0.0,14.0,96,0.18,,,0.22,meteohub,2013-01-28 17:37:00,
2013-01-28 17:42:00,46.8,41.2,29.34,West,265,3.0,14.0,96,0.18,,,0.22,meteohub,2013-01-28 17:42:00,
2013-01-28 17:47:00,46.8,41.2,29.34,WSW,238,3.0,9.0,96,0.16,,,0.22,meteohub,2013-01-28 17:47:00,
2013-01-28 17:52:00,46.9,41.9,29.35,West,267,2.0,9.0,96,0.15,,,0.22,meteohub,2013-01-28 17:52:00,
2013-01-28 17:57:00,47.1,41.2,29.35,West,262,0.0,9.0,95,0.14,,,0.22,meteohub,2013-01-28 17:57:00,
2013-01-28 18:02:00,47.1,41.7,29.35,WSW,238,2.0,9.0,94,0.11,,,0.22,meteohub,2013-01-28 18:02:00,
2013-01-28 18:07:00,47.5,42.1,29.34,SW,229,4.0,10.0,93,0.08,,,0.22,meteohub,2013-01-28 18:07:00,
2013-01-28 18:12:00,47.5,41.2,29.34,West,271,11.0,11.0,93,0.04,,,0.22,meteohub,2013-01-28 18:12:00,
2013-01-28 18:17:00,47.7,41.2,29.34,WSW,252,3.0,11.0,92,0.01,,,0.22,meteohub,2013-01-28 18:17:00,
2013-01-28 18:22:00,47.7,41.7,29.35,NW,308,3.0,11.0,91,0.00,,,0.22,meteohub,2013-01-28 18:22:00,
2013-01-28 18:27:00,47.7,41.7,29.35,West,273,2.0,11.0,90,0.00,,,0.22,meteohub,2013-01-28 18:27:00,
2013-01-28 18:32:00,47.7,41.2,29.35,SW,231,1.0,12.0,90,0.00,,,0.22,meteohub,2013-01-28 18:32:00,
2013-01-28 18:37:00,47.8,41.7,29.35,SSE,165,2.0,12.0,89,0.00,,,0.22,meteohub,2013-01-28 18:37:00,
2013-01-28 18:42:00,48.0,42.3,29.35,NW,306,0.0,12.0,88,0.00,,,0.22,meteohub,2013-01-28 18:42:00,
2013-01-28 18:47:00,48.0,42.6,29.35,SW,214,3.0,9.0,88,0.00,,,0.22,meteohub,2013-01-28 18:47:00,
2013-01-28 18:52:00,48.0,42.4,29.36,SW,217,0.0,9.0,87,0.00,,,0.22,meteohub,2013-01-28 18:52:00,
2013-01-28 18:56:00,48.0,43.0,29.36,West,275,0.0,9.0,87,0.00,,,0.22,meteohub,2013-01-28 18:56:00,
2013-01-28 19:02:00,47.8,43.2,29.36,West,261,7.0,15.0,86,0.00,,,0.22,meteohub,2013-01-28 19:02:00,
2013-01-28 19:07:00,48.0,43.3,29.36,NNW,336,0.0,15.0,86,0.00,,,0.22,meteohub,2013-01-28 19:07:00,
2013-01-28 19:12:00,48.0,43.3,29.36,WSW,254,0.0,15.0,85,0.00,,,0.22,meteohub,2013-01-28 19:12:00,
2013-01-28 19:17:00,48.2,43.7,29.36,SSW,211,3.0,12.0,85,0.00,,,0.22,meteohub,2013-01-28 19:17:00,
2013-01-28 19:22:00,48.2,44.6,29.36,WNW,298,2.0,12.0,84,0.00,,,0.22,meteohub,2013-01-28 19:22:00,
2013-01-28 19:27:00,48.2,44.8,29.36,SSW,205,6.0,12.0,85,0.00,,,0.22,meteohub,2013-01-28 19:27:00,
2013-01-28 19:32:00,48.4,45.9,29.36,WSW,240,3.0,11.0,84,0.00,,,0.22,meteohub,2013-01-28 19:32:00,
2013-01-28 19:37:00,48.4,45.0,29.38,WNW,283,0.0,10.0,83,0.00,,,0.22,meteohub,2013-01-28 19:37:00,
2013-01-28 19:42:00,48.6,45.1,29.38,SW,217,8.0,13.0,83,0.00,,,0.22,meteohub,2013-01-28 19:42:00,
2013-01-28 19:47:00,48.7,44.6,29.38,West,259,3.0,13.0,82,0.00,,,0.22,meteohub,2013-01-28 19:47:00,
2013-01-28 19:52:00,48.7,44.4,29.38,WSW,252,0.0,15.0,82,0.00,,,0.22,meteohub,2013-01-28 19:52:00,
2013-01-28 19:57:00,48.7,44.8,29.38,SSW,196,1.0,15.0,82,0.00,,,0.22,meteohub,2013-01-28 19:57:00,
2013-01-28 20:02:00,48.6,43.5,29.38,WNW,284,6.0,11.0,82,0.00,,,0.22,meteohub,2013-01-28 20:02:00,
2013-01-28 20:07:00,48.6,43.5,29.36,West,273,2.0,11.0,81,0.00,,,0.22,meteohub,2013-01-28 20:07:00,
2013-01-28 20:12:00,48.7,43.2,29.36,SW,231,0.0,11.0,81,0.00,,,0.22,meteohub,2013-01-28 20:12:00,
2013-01-28 20:17:00,48.6,43.0,29.36,WNW,302,2.0,12.0,81,0.00,,,0.22,meteohub,2013-01-28 20:17:00,
2013-01-28 20:22:00,48.6,43.0,29.37,WSW,254,0.0,12.0,82,0.00,,,0.22,meteohub,2013-01-28 20:22:00,
2013-01-28 20:27:00,48.6,42.4,29.37,SW,236,6.0,12.0,82,0.00,,,0.22,meteohub,2013-01-28 20:27:00,
2013-01-28 20:32:00,48.6,41.9,29.37,West,268,1.0,11.0,82,0.00,,,0.22,meteohub,2013-01-28 20:32:00,
2013-01-28 20:37:00,48.7,41.5,29.38,SE,146,3.0,12.0,82,0.00,,,0.22,meteohub,2013-01-28 20:37:00,
2013-01-28 20:42:00,48.9,41.7,29.38,WNW,292,0.0,12.0,81,0.00,,,0.22,meteohub,2013-01-28 20:42:00,
2013-01-28 20:47:00,48.7,41.4,29.38,WSW,240,0.0,15.0,81,0.00,,,0.22,meteohub,2013-01-28 20:47:00,
2013-01-28 20:52:00,48.7,41.2,29.38,SW,233,3.0,15.0,81,0.00,,,0.22,meteohub,2013-01-28 20:52:00,
2013-01-28 20:57:00,48.7,41.5,29.38,West,266,2.0,12.0,80,0.00,,,0.22,meteohub,2013-01-28 20:57:00,
2013-01-28 21:02:00,48.9,41.0,29.38,SSW,206,10.0,17.0,81,0.00,,,0.22,meteohub,2013-01-28 21:02:00,
2013-01-28 21:07:00,48.9,40.8,29.39,WNW,290,0.0,17.0,80,0.00,,,0.22,meteohub,2013-01-28 21:07:00,
2013-01-28 21:12:00,48.9,40.8,29.39,West,281,0.0,17.0,80,0.00,,,0.22,meteohub,2013-01-28 21:12:00,
2013-01-28 21:17:00,48.9,40.8,29.39,WSW,251,0.0,17.0,79,0.00,,,0.22,meteohub,2013-01-28 21:17:00,
2013-01-28 21:22:00,48.9,40.6,29.39,SW,236,1.0,10.0,79,0.00,,,0.22,meteohub,2013-01-28 21:22:00,
2013-01-28 21:27:00,48.9,40.5,29.39,SSW,211,0.0,11.0,79,0.00,,,0.22,meteohub,2013-01-28 21:27:00,
2013-01-28 21:32:00,48.9,40.6,29.39,WNW,287,0.0,11.0,79,0.00,,,0.22,meteohub,2013-01-28 21:32:00,
2013-01-28 21:37:00,48.7,40.5,29.39,NW,305,8.0,11.0,79,0.00,,,0.22,meteohub,2013-01-28 21:37:00,
2013-01-28 21:42:00,48.7,41.0,29.39,WNW,284,2.0,12.0,79,0.00,,,0.22,meteohub,2013-01-28 21:42:00,
2013-01-28 21:47:00,48.7,40.5,29.39,WNW,286,3.0,12.0,80,0.00,,,0.22,meteohub,2013-01-28 21:47:00,
2013-01-28 21:52:00,48.9,39.7,29.40,WSW,250,3.0,12.0,79,0.00,,,0.22,meteohub,2013-01-28 21:52:00,
2013-01-28 21:57:00,48.9,40.3,29.40,WSW,239,2.0,12.0,80,0.00,,,0.22,meteohub,2013-01-28 21:57:00,
2013-01-28 22:02:00,48.9,40.1,29.40,SW,226,4.0,12.0,80,0.00,,,0.22,meteohub,2013-01-28 22:02:00,
2013-01-28 22:07:00,49.1,40.3,29.41,West,269,0.0,10.0,79,0.00,,,0.22,meteohub,2013-01-28 22:07:00,
2013-01-28 22:12:00,49.1,40.1,29.41,WSW,239,4.0,10.0,79,0.00,,,0.22,meteohub,2013-01-28 22:12:00,
2013-01-28 22:17:00,48.9,40.1,29.41,West,275,0.0,8.0,79,0.00,,,0.22,meteohub,2013-01-28 22:17:00,
2013-01-28 22:22:00,49.1,40.3,29.42,WNW,291,0.0,8.0,78,0.00,,,0.22,meteohub,2013-01-28 22:22:00,
2013-01-28 22:27:00,49.3,40.1,29.42,West,278,0.0,14.0,78,0.00,,,0.22,meteohub,2013-01-28 22:27:00,
2013-01-28 22:32:00,49.3,39.9,29.42,West,274,2.0,14.0,77,0.00,,,0.22,meteohub,2013-01-28 22:32:00,
2013-01-28 22:37:00,49.5,39.9,29.42,NW,318,0.0,14.0,78,0.00,,,0.22,meteohub,2013-01-28 22:37:00,
2013-01-28 22:42:00,49.3,39.2,29.42,NNW,327,1.0,11.0,78,0.00,,,0.22,meteohub,2013-01-28 22:42:00,
2013-01-28 22:47:00,49.3,39.7,29.42,WSW,242,1.0,11.0,78,0.00,,,0.22,meteohub,2013-01-28 22:47:00,
2013-01-28 22:52:00,49.3,39.7,29.44,West,273,2.0,7.0,78,0.00,,,0.22,meteohub,2013-01-28 22:52:00,
2013-01-28 22:57:00,49.5,39.9,29.44,WSW,247,0.0,11.0,78,0.00,,,0.22,meteohub,2013-01-28 22:57:00,
2013-01-28 23:02:00,49.5,39.0,29.44,WSW,248,1.0,11.0,78,0.00,,,0.22,meteohub,2013-01-28 23:02:00,
2013-01-28 23:07:00,49.5,39.0,29.45,SSW,207,0.0,11.0,78,0.00,,,0.22,meteohub,2013-01-28 23:07:00,
2013-01-28 23:12:00,49.3,39.9,29.45,West,275,0.0,10.0,78,0.00,,,0.22,meteohub,2013-01-28 23:12:00,
2013-01-28 23:17:00,49.3,39.7,29.45,SW,233,0.0,10.0,78,0.00,,,0.22,meteohub,2013-01-28 23:17:00,
2013-01-28 23:22:00,49.3,39.7,29.46,WSW,248,1.0,9.0,78,0.00,,,0.22,meteohub,2013-01-28 23:22:00,
2013-01-28 23:27:00,49.5,39.7,29.46,WNW,292,2.0,11.0,78,0.00,,,0.22,meteohub,2013-01-28 23:27:00,
2013-01-28 23:32:00,49.3,39.0,29.46,SW,218,2.0,13.0,78,0.00,,,0.22,meteohub,2013-01-28 23:32:00,
2013-01-28 23:37:00,49.5,39.0,29.46,West,263,10.0,13.0,77,0.00,,,0.22,meteohub,2013-01-28 23:37:00,
2013-01-28 23:42:00,49.6,38.7,29.46,WNW,286,4.0,10.0,77,0.00,,,0.22,meteohub,2013-01-28 23:42:00,
2013-01-28 23:47:00,49.5,39.9,29.46,WSW,257,0.0,10.0,78,0.00,,,0.22,meteohub,2013-01-28 23:47:00,
2013-01-28 23:52:00,49.3,40.1,29.47,WSW,240,0.0,10.0,79,0.00,,,0.22,meteohub,2013-01-28 23:52:00,
2013-01-28 23:57:00,49.1,38.7,29.47,WSW,254,0.0,8.0,79,0.00,,,0.22,meteohub,2013-01-28 23:57:00,